Overview Statistics Trail Chart Weather Telemetry Raw packets
 

This is the latest recevied weather packets stored in our database for station/object HS2LXA-WX. If no packets are shown the sender has not sent any weather packets the latest 10 day(s).

<< 33 34 35 36 37 38 39 >>
Time Temp. Humidity Pressure Rain* Wind** Luminosity Snow
1788090107 30° C 92% 1009 hPa 0.25 mm - - -
1788089507 30° C 92% 1008.8 hPa 0.25 mm - - -
1788088907 30° C 92% 1008.7 hPa 0.25 mm - - -
1788087536 30.56° C 89% 1008.6 hPa 0.25 mm - - -
1788086937 30.56° C 88% 1008.5 hPa 0.25 mm - - -
1788086336 30° C 89% 1008.5 hPa 0.25 mm - - -
1788085733 30° C 89% 1008.3 hPa 0.25 mm - - -
1788085133 30.56° C 89% 1008.2 hPa 0.25 mm - - -
1788084533 30.56° C 88% 1008 hPa 0.25 mm - - -
1788083934 31.11° C 89% 1007.9 hPa 0.25 mm - - -
1788083332 31.11° C 89% 1008 hPa 0.25 mm - - -
1788081912 31.11° C 88% 1007.6 hPa 0.25 mm - - -
1788081166 31.11° C 87% 1007.9 hPa 0.25 mm - - -
1788080406 31.67° C 87% 1008.2 hPa 0.25 mm - - -
1788079807 31.11° C 88% 1008.3 hPa 0.25 mm - - -
1788077562 31.67° C 86% 1008.4 hPa 0.25 mm - - -
1788076962 32.22° C 87% 1008.5 hPa 0.25 mm - - -
1788076362 31.67° C 87% 1008.8 hPa 0.25 mm - - -
1788075437 32.22° C 86% 1008.8 hPa 0.25 mm - - -
1788074299 32.22° C 86% 1008.9 hPa 0.25 mm - - -
1788073699 32.22° C 85% 1009 hPa 0.25 mm - - -
1788072456 32.22° C 84% 1009.3 hPa 0.25 mm - - -
1788071419 32.78° C 83% 1009.4 hPa 0.25 mm - - -
1788070818 33.33° C 82% 1009.4 hPa 0.25 mm - - -
1788070102 32.78° C 83% 1009.6 hPa 0.25 mm - - -

* Rain latest hour (hover to see other rain measurements)
** Current wind speed in m/s (hover to see current wind gust speed)